METEOR 2-11 DEB, 40708

Orbit data source: Space-Track

METEOR 2-11 DEB, 40708 is space debris in LEO originally from a launch on Thu, 05 Jul 1984 UTC launched from the Plesetsk Missile And Space Complex (PKMTR). Debris objects in space refer to the collection of defunct objects orbiting the Earth. Examples of debris include non-operational satellites, rocket bodies, and fragments generated from explosions, collisions, or faulty payload assembly.

Loading next visibility...
Identifier
40708, 1984-072K
Orbit
LEO
Country
Flag of CISCIS
Related business
Manufacturer
Unknown
Mission
Spacecraft
Bus & Motor
Unknown
Mass
Unknown
Launch date (UTC)
1984-07-05 (42 years ago)
Launch vehicle
Unknown
Launch site
Plesetsk Missile And Space Complex (PKMTR)
Object type
Payload
Rocket body
Debris
Shape & HBR
Unknown shape, 0.1 m
Radar Cross Section
Small (<0.1 m²)

Expand to show TLE details & history
Last TLE update: 17 hours ago

TLE from 17 hours ago
0 METEOR 2-11 DEB
1 40708U 84072K   26130.01599044  .00001218  00000-0  84210-3 0  9994
2 40708  82.5166  36.3598 0029227  47.2488 313.1132 13.98189718568703
Epoch: 2026-05-10T00:23Z
TLE epoch observation values (Epoch: 2026-05-10T00:23:01.574Z)
Latitude
-0.00005°
Longitude
162.77811°
Altitude
888.483 km
Speed
7.415 km/s
True Right ascension
02h 25m 26s
True Declination
0° 00' 00"
Sunlit
Object was in daylight at epoch
Visualization orbit readout
Latitude
Unknown
Longitude
Unknown
Altitude
Unknown
Speed
Unknown
Apparent Right ascension
Unknown
Apparent Declination
Unknown
Sunlit
N/A
Visualization observer readout
Local Sidereal Time
01:35:26
Azimuth
Unknown
Elevation
Unknown
Doppler factor
Unknown
Orbital elements
Apogee altitude
918.468 km
Perigee altitude
875.941 km
Semi-major axis
7,275.341 km
Eccentricity
0.00292
Inclination
82.5166°
RAAN
36.3598°
Arg. of periapsis
47.2488°
True anomaly
312.8681°
Mean anomaly
313.1132°
Eccentric anomaly
312.99071°
Mean motion
3.49754 °/min
Orbital period
102.93 mins
BSTAR
0.0008421
Loading maneuver chart data...
Computing Atmospheric mass density...
Loading historical data...
Loading historical data...
Loading historical data...
Loading historical data...
Loading historical data...
Loading historical data...
Loading historical data...

Documentation

Showing up to 5 results
|